Volver al catálogo

CZ-6A DEB

ActivoPO
NORAD 61420·DEBRIS·🇨🇳 China

Lanzado Aug 6, 2024 desde Taiyuan Satellite Launch Center

Loading…

Próximos Pases (próximas 24 horas)

TLE

ActualizadoSource: Space-Track

Época: Sep 14, 2026, 06:40 UTC

1 61420U 24140YM  26257.27781443  .00001436  00000-0  49562-3 0  9995
2 61420  88.9763 260.9899 0042992 301.2369  58.4620 14.34865612103525

Sigue CZ-6A DEB en tiempo real con AllMySat

Download on the App Store